Temperature
19 19 19 19 19 20 20 20 20 20 19 19 19 19 19 19 19 19 19 19 18 18 18 18 18 18 18 18 18 18 18 18 18 17 17 17 17 17 17 17 17 17 17
20 20 19 19 19 20 20 20 20 20 20 19 19 19 19 19 19 19 19 18 18 18 18 18 18 18 18 18 18 18 18 17 17 17 17 17 17 17 17 17 17 17 17
20 20 19 19 19 20 20 20 20 20 19 19 19 19 19 19 19 19 18 18 18 18 18 18 18 18 18 18 18 18 17 17 17 17 17 17 17 17 17 17 17 17 16
21 20 20 19 19 20 20 20 20 19 19 19 19 19 19 19 19 18 18 18 18 18 18 18 18 18 18 18 18 17 17 17 17 17 17 17 17 17 17 17 17 16 16
21 20 20 20 20 20 20 20 19 19 19 19 19 19 19 19 18 18 18 18 18 18 18 18 18 18 18 17 17 17 17 17 17 17 17 17 17 17 17 17 17 16 16
21 20 20 20 20 20 20 19 19 19 19 19 19 19 18 18 18 18 18 18 18 18 18 18 18 18 17 17 17 17 17 17 17 17 17 17 17 17 17 17 17 16 16
21 20 20 20 20 20 19 19 19 19 19 19 19 18 18 18 18 18 18 18 18 18 18 18 17 17 17 17 17 17 17 17 17 17 17 17 17 17 17 17 17 16 16
21 20 20 20 20 20 19 19 19 19 19 19 18 18 18 18 18 18 18 18 18 18 18 17 17 17 17 17 17 17 17 17 17 17 17 17 17 17 17 17 17 17 17
21 20 20 20 20 19 19 19 19 19 19 18 18 18 18 18 18 18 18 18 18 18 17 17 17 17 17 17 17 17 17 17 17 17 17 17 17 17 17 17 17 17 17
20 20 20 20 19 19 19 19 19 19 18 18 18 18 18 18 18 18 18 18 18 18 17 17 17 17 17 17 17 17 17 17 17 17 17 17 17 17 17 17 17 17 16
20 20 20 20 19 19 19 19 19 18 18 18 18 18 18 18 18 18 18 18 18 18 17 17 17 17 17 17 17 17 17 17 17 17 17 17 17 17 17 17 17 17 16
20 20 20 20 19 19 19 18 18 18 18 18 18 18 18 18 18 18 18 18 17 17 17 17 17 17 17 17 17 17 17 17 17 17 17 17 17 17 17 17 17 16 16
20 20 20 19 19 19 19 18 18 18 18 18 18 18 18 18 18 18 18 18 17 17 17 17 17 17 17 17 17 17 17 17 17 17 17 17 17 17 17 17 17 16 16
20 20 20 19 19 19 19 19 18 18 18 18 18 18 18 18 18 18 18 18 18 17 17 17 17 17 17 17 17 17 17 17 17 17 17 17 17 17 17 17 17 16 16
20 20 20 20 19 19 19 18 18 18 18 18 18 18 18 18 18 18 18 18 17 17 17 17 17 17 17 17 17 17 17 17 17 17 17 17 17 17 17 16 16 16 16
20 20 20 20 19 19 19 18 18 18 18 18 18 18 18 18 18 18 17 17 17 17 17 17 17 17 17 17 17 17 17 17 17 17 17 17 17 16 16 16 16 16 16
20 20 20 20 19 19 19 18 18 18 18 18 18 18 18 17 17 17 17 17 17 17 17 17 17 17 17 17 17 17 17 17 17 17 17 17 16 16 16 16 16 16 16
20 20 20 19 19 19 19 18 18 18 18 18 18 18 17 17 17 17 17 17 17 17 17 17 17 17 17 17 17 17 17 17 17 16 16 16 16 16 16 16 16 16 16
20 20 19 19 19 19 19 18 18 18 18 18 18 17 17 17 17 17 17 17 17 17 17 17 17 17 17 17 17 17 17 16 16 16 16 16 16 16 16 16 16 16 16
19 19 19 19 18 18 18 18 18 17 17 17 17 17 17 17 17 17 17 17 17 17 17 17 17 17 17 17 16 16 16 16 16 16 16 16 16 16 16 16 16 16 16
19 19 19 18 18 18 18 18 18 17 17 17 17 17 17 17 17 17 17 17 17 17 17 17 17 17 16 16 16 16 16 16 16 16 16 16 16 16 16 16 16 16 16
19 19 19 18 18 18 18 18 18 18 17 17 17 17 17 17 17 17 17 17 17 17 17 17 17 16 16 16 16 16 16 16 16 16 16 16 16 16 16 16 16 16 16
19 19 19 18 18 18 18 18 17 17 17 17 17 17 17 17 17 17 17 17 17 17 17 17 17 16 16 16 16 16 16 16 17 17 17 16 16 16 16 16 16 16 16
19 19 19 18 18 18 18 17 17 17 17 17 17 17 17 17 17 17 17 17 17 17 16 16 16 16 16 16 16 16 16 16 16 17 17 17 17 16 16 16 16 16 16
19 19 19 18 18 18 18 17 17 17 17 17 17 17 17 17 17 17 17 17 17 16 16 16 16 16 16 16 16 16 16 16 16 17 17 17 17 17 17 16 16 16 16
19 19 18 18 18 17 17 17 17 17 17 17 17 17 17 17 17 17 17 17 16 16 16 16 16 16 16 16 16 16 16 16 16 17 17 17 17 17 17 17 17 16 16
Wind_Speed
8 11 19 18 18 18 18 19 20 20 20 20 20 20 19 18 17 16 15 15 15 14 15 15 15 16 17 17 17 18 17 17 17 18 18 18 18 18 18 18 17 16 19
13 16 20 19 19 19 19 19 19 19 19 19 19 19 18 17 16 16 15 15 15 15 15 15 16 16 17 17 17 17 16 16 17 17 17 17 17 17 17 17 16 15 18
15 16 20 20 19 19 19 18 18 18 18 18 18 17 17 16 16 15 15 15 15 15 15 15 15 16 16 16 16 16 16 16 16 17 16 15 15 16 17 17 17 17 17
15 15 18 20 20 19 18 18 18 18 17 17 17 17 16 16 15 15 15 15 15 15 15 15 15 16 16 16 16 16 16 16 17 16 13 13 14 16 16 17 16 16 16
13 15 19 21 20 19 19 18 17 17 17 17 16 16 16 15 15 15 15 15 15 15 15 15 15 15 15 14 14 14 14 15 15 14 12 12 13 16 16 16 16 16 15
13 15 19 21 20 19 18 18 17 17 16 16 16 15 15 15 15 14 14 14 14 14 14 15 15 14 14 13 13 13 13 15 14 12 12 12 13 15 15 15 15 15 15
12 13 18 21 20 19 18 18 17 16 16 16 15 14 14 14 14 14 14 14 14 14 14 14 14 13 12 12 12 12 13 15 13 12 11 11 12 14 14 14 14 14 14
13 12 17 21 20 19 18 18 17 16 16 15 15 15 14 14 14 13 13 13 13 13 13 12 12 11 10 10 10 12 14 14 12 11 10 10 12 13 14 14 13 13 13
11 10 11 16 18 19 18 18 17 16 16 15 15 15 14 14 13 13 12 12 12 12 11 11 10 9 9 9 9 11 13 14 11 10 10 9 12 13 13 13 12 12 12
9 9 8 11 14 15 16 18 18 17 16 15 15 14 14 13 13 12 11 11 11 10 10 10 9 9 8 8 9 11 13 13 11 9 8 10 12 12 12 12 11 11 12
11 8 8 8 10 12 13 16 17 17 16 15 14 14 13 10 10 10 10 10 10 9 9 8 8 8 7 7 8 11 12 10 10 8 8 10 11 11 11 11 11 11 11
14 11 8 9 8 10 12 12 12 12 13 12 11 11 10 10 9 8 9 9 9 8 7 7 7 7 7 6 7 9 9 10 9 8 8 10 11 10 10 10 10 10 10
15 13 10 9 8 8 6 8 8 8 9 10 11 11 11 9 7 6 5 6 6 6 5 6 6 6 6 5 6 7 8 8 7 7 8 10 10 10 10 9 9 9 9
14 14 11 10 8 7 6 6 7 7 7 7 9 11 10 6 5 4 4 4 4 5 5 5 4 5 5 5 6 7 7 7 7 6 8 10 10 10 10 9 9 9 9
13 13 12 11 9 7 6 6 7 6 7 8 9 10 10 6 4 4 3 3 4 4 4 3 3 3 3 4 5 6 7 7 7 6 7 9 9 9 9 9 9 9 9
14 13 12 12 10 8 7 6 6 7 8 9 9 10 11 8 6 4 3 3 3 4 4 3 3 3 2 3 4 5 6 6 7 6 6 7 8 9 9 9 9 9 9
13 12 12 12 11 10 9 7 7 7 8 7 8 10 11 10 9 6 4 3 3 4 4 4 3 3 3 3 3 3 4 5 5 6 5 5 6 7 8 8 9 9 9
11 11 12 13 12 11 9 7 6 7 8 7 9 10 11 11 10 7 4 3 4 5 4 3 3 3 2 2 2 2 2 3 4 4 4 5 5 5 7 7 8 8 8
12 12 13 11 13 12 10 7 6 6 7 8 9 9 10 11 11 9 5 5 6 4 3 2 2 2 3 2 2 1 1 1 2 3 4 5 6 6 6 7 7 8 9
11 12 12 11 11 11 8 6 5 5 5 7 8 10 11 11 11 9 6 6 6 4 3 2 3 2 2 2 2 2 1 0 1 2 4 4 6 7 7 7 7 8 9
11 11 12 11 10 10 8 8 7 7 6 6 6 10 12 12 12 10 6 6 5 5 5 5 3 3 2 2 3 2 2 1 1 2 3 3 5 7 7 8 8 8 8
12 11 11 12 12 12 10 8 6 6 5 5 5 7 11 12 12 10 8 6 6 5 5 5 4 3 2 2 3 2 1 2 2 1 2 4 5 5 6 8 8 9 9
11 12 12 13 12 12 11 7 6 4 3 3 4 5 7 11 12 10 10 7 6 6 6 5 5 5 3 1 1 3 3 3 2 2 2 3 3 4 5 6 8 9 10
10 10 10 10 10 11 12 11 11 8 7 6 5 5 6 9 10 11 10 9 7 6 6 6 5 4 5 3 1 1 1 3 2 1 2 1 2 4 5 5 7 9 10
7 8 8 9 9 10 10 12 12 8 6 5 5 7 7 6 8 10 10 8 7 6 6 6 5 5 4 4 3 2 2 1 1 2 1 2 2 3 3 5 6 7 9
6 6 7 8 9 10 10 10 11 11 9 8 8 8 6 5 5 7 8 7 7 6 6 6 6 6 5 4 3 3 3 3 3 3 2 2 2 2 2 3 5 7 8
Wind_Direction
152 154 148 142 134 128 123 119 117 116 117 119 121 123 124 124 124 122 119 116 113 109 106 105 105 106 107 108 110 110 110 110 110 109 108 106 105 104 103 102 101 102 104
145 152 149 144 138 132 127 124 121 120 121 122 123 124 125 125 125 123 121 119 116 112 109 108 107 108 109 109 111 112 111 111 111 111 108 106 105 104 104 104 104 107 106
143 149 149 146 140 135 132 129 126 125 125 125 125 126 126 126 126 126 124 121 118 114 112 110 110 111 112 112 112 113 112 110 110 109 105 104 106 106 106 106 106 106 106
142 145 149 148 143 139 136 134 132 130 128 129 129 128 128 128 128 127 125 123 120 117 116 115 114 114 114 115 115 114 113 111 108 106 102 105 109 110 109 107 107 107 107
141 144 153 150 147 143 141 138 136 134 133 132 132 131 131 131 130 127 125 123 121 119 118 118 118 117 117 117 117 117 116 112 109 105 100 102 109 113 111 110 109 109 109
141 145 155 152 150 147 145 143 141 139 137 136 135 134 134 133 130 128 126 125 123 121 119 118 119 119 118 119 120 120 122 118 110 108 105 108 113 115 114 112 111 111 110
143 147 156 154 152 151 149 147 145 143 142 140 138 136 134 134 133 130 128 126 124 122 119 118 118 118 118 119 122 124 124 124 117 114 111 113 118 119 117 116 114 114 113
147 147 155 156 155 155 154 152 150 148 147 145 143 140 137 136 135 134 131 129 126 124 120 118 117 115 113 113 122 128 128 129 126 121 119 121 125 123 121 120 119 118 117
145 145 151 157 159 159 159 156 155 154 153 150 146 144 141 140 138 135 133 132 128 126 123 121 117 113 111 114 124 133 134 132 128 128 129 129 131 129 126 124 124 123 123
145 146 144 151 155 159 161 160 159 158 156 153 150 148 146 144 143 140 136 136 132 129 126 124 120 115 113 117 130 140 138 132 133 132 133 139 137 136 133 131 129 127 126
159 153 149 148 150 155 159 166 162 161 160 156 156 154 146 137 137 138 142 140 135 132 128 124 120 115 108 113 132 138 131 135 137 137 142 148 146 142 139 138 137 135 132
171 169 159 156 152 154 165 163 157 156 157 152 151 144 135 133 137 139 147 143 137 132 127 121 117 106 96 98 123 127 130 139 141 146 154 155 153 150 146 145 144 144 141
173 173 168 162 158 158 154 150 145 142 144 144 145 140 137 133 134 129 130 128 123 116 102 100 96 94 98 108 116 128 138 144 150 156 165 165 161 157 154 154 154 153 150
175 178 171 165 159 156 148 149 143 142 144 145 149 148 144 137 132 133 128 122 111 103 96 93 94 95 103 118 129 139 147 153 157 162 173 172 168 165 164 164 164 164 159
178 180 174 168 164 157 149 156 155 153 155 154 156 160 158 152 148 147 142 134 126 121 116 108 101 101 107 121 138 149 156 159 162 167 177 180 177 173 172 175 176 174 169
181 181 176 173 169 161 161 162 161 163 160 160 166 171 169 165 161 158 153 149 144 141 132 125 115 110 113 122 134 152 158 159 164 169 176 185 189 186 185 186 187 184 181
180 177 178 176 169 168 167 170 166 168 166 168 175 177 177 175 171 167 162 163 160 150 135 119 102 100 107 115 123 135 152 161 168 175 181 190 197 197 197 198 200 199 196
171 173 179 183 177 176 173 169 166 172 173 176 179 179 183 184 179 169 169 175 163 148 136 120 111 102 97 108 122 129 142 153 172 180 184 194 201 206 210 213 213 211 210
172 174 180 184 179 180 178 171 168 174 177 179 180 179 185 186 183 174 176 174 159 147 139 138 113 123 126 122 120 101 121 159 187 197 203 209 214 217 218 223 225 224 222
174 177 179 180 180 177 172 167 163 168 179 179 182 182 182 185 184 178 177 169 159 147 143 130 120 97 114 130 111 84 39 283 210 216 226 224 225 228 229 231 234 235 233
173 178 179 178 177 173 174 179 181 185 185 186 186 184 182 184 182 178 175 165 163 163 163 150 129 116 105 116 97 61 21 2 258 238 232 232 234 234 232 233 235 238 242
175 178 183 181 180 179 182 183 177 169 177 185 179 178 183 183 182 184 173 170 167 157 154 155 142 129 117 123 127 109 36 351 329 262 237 231 236 236 236 236 234 237 240
178 183 189 186 182 181 175 164 153 136 131 159 172 178 186 184 183 180 175 169 169 168 172 172 159 149 150 136 130 141 150 217 288 314 271 245 237 232 239 241 237 238 239
182 183 189 186 184 181 174 172 171 177 180 185 181 180 180 185 183 178 174 172 171 172 175 179 171 158 148 157 143 115 147 154 160 299 317 289 256 239 240 241 239 237 235
170 175 183 179 181 180 180 179 180 182 181 169 167 173 181 184 182 178 176 173 173 176 179 172 164 163 160 161 161 152 132 106 130 161 260 304 297 258 243 241 242 241 237
156 169 174 177 181 178 181 183 183 181 173 166 172 177 181 181 180 178 175 175 177 176 180 178 171 170 171 162 162 163 162 163 181 174 202 243 267 281 267 248 239 240 239
Height
1506 1510 1513 1515 1518 1520 1521 1523 1524 1526 1527 1529 1530 1532 1533 1534 1536 1537 1538 1539 1540 1541 1542 1543 1543 1544 1545 1546 1546 1547 1548 1549 1550 1551 1552 1553 1554 1555 1556 1557 1557 1558 1560
1505 1510 1513 1516 1519 1521 1523 1524 1526 1527 1529 1531 1532 1533 1535 1536 1537 1539 1540 1541 1542 1543 1544 1545 1545 1546 1547 1548 1549 1550 1551 1552 1553 1554 1555 1555 1556 1557 1558 1559 1560 1561 1562
1506 1510 1514 1517 1520 1522 1524 1526 1527 1529 1531 1532 1534 1535 1537 1538 1539 1540 1542 1543 1544 1545 1546 1547 1547 1548 1549 1550 1551 1552 1553 1554 1555 1556 1557 1558 1559 1560 1561 1562 1563 1564 1565
1507 1511 1515 1518 1521 1523 1525 1527 1529 1531 1532 1534 1535 1537 1538 1540 1541 1542 1543 1545 1546 1547 1548 1549 1550 1551 1552 1553 1554 1555 1556 1557 1558 1559 1560 1561 1562 1563 1564 1565 1566 1567 1568
1508 1512 1516 1519 1522 1524 1526 1528 1530 1532 1534 1536 1537 1539 1540 1542 1543 1544 1545 1547 1548 1549 1550 1551 1552 1553 1554 1555 1556 1557 1558 1559 1560 1561 1562 1563 1564 1566 1567 1568 1569 1570 1571
1509 1513 1517 1520 1523 1525 1528 1530 1532 1534 1535 1537 1539 1541 1542 1543 1545 1546 1547 1548 1549 1551 1552 1553 1554 1556 1557 1558 1559 1560 1561 1562 1563 1564 1565 1566 1567 1568 1569 1570 1571 1572 1573
1510 1514 1518 1521 1524 1526 1529 1531 1533 1535 1537 1539 1541 1542 1544 1545 1546 1548 1549 1550 1552 1553 1554 1555 1557 1558 1559 1560 1561 1562 1563 1564 1565 1566 1567 1568 1569 1570 1571 1572 1573 1574 1575
1511 1515 1518 1522 1525 1527 1530 1532 1534 1536 1538 1540 1542 1544 1545 1547 1548 1550 1551 1552 1554 1555 1556 1557 1559 1560 1561 1563 1564 1565 1565 1566 1567 1568 1569 1570 1571 1572 1573 1575 1576 1577 1578
1513 1516 1519 1522 1525 1528 1530 1533 1535 1537 1539 1541 1543 1545 1547 1548 1550 1551 1553 1554 1556 1557 1558 1559 1561 1562 1563 1565 1566 1567 1567 1568 1569 1570 1571 1572 1573 1574 1575 1577 1578 1579 1580
1513 1516 1519 1522 1525 1528 1531 1533 1536 1538 1540 1542 1544 1546 1548 1550 1551 1553 1554 1556 1557 1559 1560 1561 1562 1564 1565 1566 1567 1568 1569 1570 1571 1572 1573 1574 1575 1576 1577 1578 1579 1580 1582
1513 1516 1519 1522 1525 1528 1531 1534 1536 1539 1541 1543 1545 1547 1549 1551 1553 1554 1556 1557 1559 1560 1561 1563 1564 1565 1567 1568 1569 1570 1571 1572 1573 1574 1575 1576 1577 1578 1579 1580 1581 1582 1583
1511 1515 1519 1522 1525 1528 1531 1534 1537 1539 1542 1544 1546 1548 1550 1552 1554 1555 1557 1559 1560 1561 1562 1564 1565 1567 1568 1569 1570 1571 1572 1573 1574 1575 1576 1577 1578 1579 1580 1581 1582 1583 1584
1510 1514 1518 1521 1525 1528 1531 1534 1536 1539 1542 1544 1547 1549 1550 1552 1554 1556 1558 1559 1561 1562 1564 1565 1566 1568 1569 1571 1572 1573 1574 1575 1575 1576 1577 1578 1579 1580 1581 1582 1584 1585 1586
1509 1513 1517 1520 1524 1527 1531 1533 1536 1539 1542 1544 1547 1549 1551 1553 1555 1557 1558 1560 1562 1563 1565 1566 1568 1569 1571 1572 1573 1574 1575 1576 1576 1577 1578 1579 1580 1581 1582 1583 1584 1585 1587
1508 1512 1515 1519 1523 1527 1530 1533 1536 1539 1542 1544 1547 1549 1552 1553 1555 1557 1559 1561 1562 1564 1566 1567 1569 1570 1571 1573 1574 1575 1576 1577 1577 1578 1579 1580 1581 1582 1583 1584 1585 1586 1587
1506 1510 1514 1518 1522 1525 1529 1532 1535 1538 1541 1544 1547 1549 1552 1554 1556 1558 1559 1561 1563 1565 1566 1568 1569 1571 1572 1573 1574 1575 1576 1577 1578 1579 1580 1581 1581 1582 1583 1584 1585 1586 1587
1505 1509 1512 1516 1520 1524 1527 1531 1535 1538 1541 1544 1547 1549 1552 1554 1556 1558 1560 1562 1563 1565 1567 1568 1570 1571 1573 1574 1575 1576 1577 1578 1579 1580 1580 1581 1582 1583 1583 1584 1585 1586 1587
1504 1507 1511 1514 1518 1521 1525 1529 1533 1537 1540 1543 1546 1549 1551 1554 1556 1558 1560 1562 1563 1565 1567 1568 1570 1571 1573 1574 1575 1576 1577 1578 1579 1580 1581 1581 1582 1583 1583 1584 1585 1586 1587
1502 1505 1508 1512 1515 1519 1524 1528 1531 1535 1538 1541 1545 1548 1550 1553 1555 1557 1559 1561 1563 1565 1567 1568 1570 1571 1573 1574 1575 1576 1577 1578 1579 1580 1580 1581 1582 1582 1583 1584 1584 1585 1586
1500 1503 1506 1509 1512 1517 1521 1526 1529 1533 1537 1540 1543 1546 1549 1552 1554 1556 1559 1561 1562 1564 1566 1568 1569 1571 1572 1574 1575 1576 1577 1578 1578 1579 1580 1581 1581 1582 1583 1583 1584 1585 1585
1496 1500 1503 1507 1510 1514 1518 1522 1525 1529 1534 1537 1541 1544 1547 1550 1553 1555 1557 1559 1561 1563 1565 1567 1569 1570 1572 1573 1574 1575 1576 1577 1578 1579 1579 1580 1581 1582 1582 1583 1583 1584 1584
1493 1497 1500 1504 1507 1511 1515 1519 1523 1527 1532 1536 1539 1542 1545 1548 1551 1553 1555 1558 1560 1562 1564 1566 1568 1569 1571 1572 1574 1574 1575 1577 1577 1577 1578 1579 1580 1580 1581 1582 1582 1583 1583
1491 1494 1498 1501 1504 1508 1512 1517 1521 1526 1529 1533 1536 1540 1543 1546 1549 1551 1553 1556 1558 1560 1563 1564 1566 1568 1569 1571 1573 1574 1575 1575 1575 1576 1577 1578 1578 1579 1580 1580 1581 1582 1582
1489 1492 1495 1498 1502 1506 1509 1513 1517 1521 1525 1529 1533 1537 1541 1544 1547 1549 1552 1554 1556 1559 1561 1563 1565 1566 1568 1569 1571 1572 1574 1574 1575 1575 1576 1576 1577 1578 1578 1579 1579 1580 1581
1488 1490 1492 1495 1499 1503 1506 1510 1514 1518 1522 1527 1531 1535 1538 1541 1544 1547 1549 1552 1554 1556 1559 1561 1563 1564 1566 1568 1569 1570 1572 1573 1573 1574 1574 1575 1575 1576 1577 1577 1578 1578 1579
1486 1489 1491 1493 1496 1499 1503 1507 1511 1515 1519 1523 1527 1531 1535 1538 1541 1544 1547 1549 1552 1554 1557 1559 1561 1562 1564 1566 1567 1569 1570 1571 1572 1572 1573 1573 1574 1574 1575 1575 1576 1576 1577